This demonstration page uses our WeatherBlox Daily Observations layout. Learn more.

39.29038, -76.61219

Hourly Observations for October 30, 2018

Temp ( °F °C ) Dew Point ( °F °C ) Humidity (%) Winds ( mph kmh ) Pressure ( in mb ) Visibility ( mi km ) Precip ( " mm )
12:54 am 00:54 undefined 48 8.9 37 2.8 66 66 undefined N/A 30.07 1018 N/A 0 0
1:54 am 01:54 undefined 47 8.3 37 2.8 69 69 undefined N/A 30.07 1018 N/A 0 0
2:54 am 02:54 undefined 44 6.7 37 2.8 76 76 undefined N/A 30.08 1019 N/A 0 0
3:54 am 03:54 undefined 44 6.7 37 2.8 76 76 undefined N/A 30.09 1019 N/A 0 0
4:54 am 04:54 undefined 44 6.7 37 2.8 76 76 undefined N/A 30.09 1019 N/A 0 0
5:54 am 05:54 undefined 44 6.7 37 2.8 76 76 undefined N/A 30.11 1020 N/A 0 0
6:54 am 06:54 undefined 44 6.7 37 2.8 76 76 undefined N/A 30.13 1020 N/A 0 0
7:54 am 07:54 undefined 45 7.2 38 3.3 77 77 undefined N/A 30.14 1021 N/A 0 0
8:54 am 08:54 undefined 48 8.9 39 3.9 71 71 undefined N/A 30.19 1022 N/A 0 0
9:54 am 09:54 undefined 54 12.2 40 4.4 59 59 undefined N/A 30.22 1023 N/A 0 0
10:54 am 10:54 undefined 57 13.9 39 3.9 51 51 undefined N/A 30.19 1022 N/A 0 0
11:54 am 11:54 undefined 58 14.4 39 3.9 50 50 undefined N/A 30.16 1021 N/A 0 0
12:54 pm 12:54 undefined 60 15.6 38 3.3 44 44 undefined N/A 30.14 1021 N/A 0 0
1:54 pm 13:54 undefined 62 16.7 37 2.8 40 40 undefined N/A 30.12 1020 N/A 0 0
2:54 pm 14:54 undefined 62 16.7 37 2.8 40 40 undefined N/A 30.11 1020 N/A 0 0
3:54 pm 15:54 undefined 61 16.1 37 2.8 41 41 undefined N/A 30.09 1019 N/A 0 0
4:54 pm 16:54 undefined 61 16.1 37 2.8 41 41 undefined N/A 30.09 1019 N/A 0 0
5:54 pm 17:54 undefined 61 16.1 39 3.9 44 44 undefined N/A 30.11 1020 N/A 0 0
6:54 pm 18:54 undefined 59 15 39 3.9 48 48 undefined N/A 30.13 1020 N/A 0 0
7:54 pm 19:54 undefined 57 13.9 41 5 55 55 undefined N/A 30.13 1020 N/A 0 0
8:54 pm 20:54 undefined 54 12.2 41 5 62 62 undefined N/A 30.13 1020 N/A 0 0
9:54 pm 21:54 undefined 53 11.7 42 5.6 66 66 undefined N/A 30.14 1021 N/A 0 0
10:54 pm 22:54 undefined 52 11.1 43 6.1 72 72 undefined N/A 30.14 1021 N/A 0 0
11:54 pm 23:54 undefined 51 10.6 42 5.6 71 71 undefined N/A 30.14 1021 N/A 0 0

Powered by AerisWeather